9HTIW LFLB-EHRD

Flight info

Callsign 9HTIW
Flight time N/A
Altitude 28000
Route VENAT T330 GILIR DCT PENDU DCT IXILU DCT EPL DCT ROUSY M624 BUB Y28 HELEN
Aircraft PC12/L-SDFGRWY/S

Departure

Time N/A
Airport Chambéry Aix les Bains airport (LFLB)

Arrival

Time 2026-05-03 21:37
Airport Rotterdam The Hague Airport (EHRD)
Time Latitude Longitude Altitude Speed Heading
2026-05-03 20:15 46.97831 6.30028 28055 ft 289 kts 328°
2026-05-03 20:15 46.99638 6.28731 28057 ft 289 kts 328°
2026-05-03 20:15 47.01442 6.27435 28054 ft 290 kts 328°
2026-05-03 20:15 47.03254 6.26132 28055 ft 290 kts 328°
2026-05-03 20:16 47.05070 6.24826 28059 ft 290 kts 328°
2026-05-03 20:16 47.06883 6.23521 28058 ft 290 kts 328°
2026-05-03 20:16 47.08697 6.22217 28058 ft 290 kts 328°
2026-05-03 20:16 47.10513 6.20910 28062 ft 290 kts 328°
2026-05-03 20:17 47.12328 6.19603 28062 ft 290 kts 328°
2026-05-03 20:17 47.14142 6.18294 28066 ft 290 kts 328°
2026-05-03 20:17 47.15958 6.16984 28051 ft 291 kts 328°
2026-05-03 20:17 47.17775 6.15672 28050 ft 291 kts 328°
2026-05-03 20:18 47.19594 6.14359 28050 ft 291 kts 328°
2026-05-03 20:18 47.21408 6.13047 28053 ft 291 kts 328°
2026-05-03 20:18 47.23228 6.11729 28050 ft 292 kts 328°
2026-05-03 20:18 47.25053 6.10407 28052 ft 292 kts 328°
2026-05-03 20:19 47.26876 6.09087 28049 ft 292 kts 328°
2026-05-03 20:19 47.28700 6.07763 28051 ft 292 kts 327°
2026-05-03 20:19 47.30521 6.06442 28050 ft 292 kts 328°
2026-05-03 20:19 47.32340 6.05120 28048 ft 292 kts 328°
2026-05-03 20:20 47.34197 6.03904 28042 ft 296 kts 337°
2026-05-03 20:20 47.36237 6.03330 28037 ft 302 kts 351°
2026-05-03 20:20 47.38319 6.03331 28039 ft 304 kts 357°
2026-05-03 20:21 47.42536 6.03436 28041 ft 303 kts 356°
2026-05-03 20:21 47.46754 6.03525 28052 ft 304 kts 357°
2026-05-03 20:22 47.50987 6.03621 28045 ft 304 kts 357°
2026-05-03 20:22 47.55224 6.03715 28048 ft 305 kts 357°
2026-05-03 20:23 47.59467 6.03811 28044 ft 305 kts 357°
2026-05-03 20:23 47.63710 6.03906 28044 ft 305 kts 357°
2026-05-03 20:24 47.67958 6.04001 28046 ft 306 kts 357°
2026-05-03 20:24 47.72211 6.04097 28046 ft 306 kts 357°
2026-05-03 20:25 47.76466 6.04205 28046 ft 306 kts 357°
2026-05-03 20:25 47.80724 6.04347 28046 ft 306 kts 357°
2026-05-03 20:26 47.84976 6.04476 28044 ft 306 kts 357°
2026-05-03 20:26 47.89238 6.04609 28041 ft 306 kts 357°
2026-05-03 20:27 47.93496 6.04741 28038 ft 306 kts 357°
2026-05-03 20:27 47.97759 6.04874 28039 ft 306 kts 357°
2026-05-03 20:28 48.02022 6.05006 28038 ft 307 kts 357°
2026-05-03 20:28 48.06294 6.05140 28037 ft 307 kts 357°
2026-05-03 20:29 48.10569 6.05273 28032 ft 307 kts 357°
2026-05-03 20:29 48.14838 6.05408 28032 ft 307 kts 357°
2026-05-03 20:30 48.19103 6.05542 28031 ft 306 kts 357°
2026-05-03 20:30 48.23367 6.05675 28031 ft 306 kts 357°
2026-05-03 20:31 48.27630 6.05809 28031 ft 306 kts 357°
2026-05-03 20:31 48.31899 6.05944 28030 ft 307 kts 357°
2026-05-03 20:32 48.36178 6.06145 28029 ft 307 kts 358°
2026-05-03 20:32 48.40454 6.06349 28030 ft 307 kts 358°
2026-05-03 20:33 48.44703 6.06547 28027 ft 307 kts 358°
2026-05-03 20:33 48.48980 6.06750 28027 ft 308 kts 358°
2026-05-03 20:34 48.53265 6.06951 28021 ft 308 kts 358°
2026-05-03 20:34 48.57553 6.07154 28049 ft 308 kts 358°
2026-05-03 20:35 48.61129 6.07324 28023 ft 310 kts 358°
2026-05-03 20:35 48.65438 6.07529 28024 ft 310 kts 358°
2026-05-03 20:36 48.69751 6.07733 28025 ft 310 kts 358°
2026-05-03 20:36 48.74063 6.07939 28025 ft 310 kts 358°
2026-05-03 20:37 48.78376 6.08145 28023 ft 310 kts 358°
2026-05-03 20:37 48.82693 6.08351 28022 ft 310 kts 358°
2026-05-03 20:38 48.87005 6.08558 28024 ft 310 kts 358°
2026-05-03 20:38 48.91320 6.08764 28024 ft 310 kts 358°
2026-05-03 20:39 48.95603 6.08970 28019 ft 311 kts 358°
2026-05-03 20:39 48.99972 6.09180 28019 ft 312 kts 358°
2026-05-03 20:40 49.04307 6.09390 28022 ft 312 kts 358°
2026-05-03 20:40 49.08642 6.09599 28021 ft 312 kts 358°
2026-05-03 20:41 49.12982 6.09809 28023 ft 312 kts 358°
2026-05-03 20:41 49.17326 6.10019 28019 ft 312 kts 358°
2026-05-03 20:42 49.21664 6.10230 28017 ft 311 kts 358°
2026-05-03 20:42 49.25998 6.10441 28015 ft 311 kts 358°
2026-05-03 20:43 49.30323 6.10651 28015 ft 311 kts 358°
2026-05-03 20:43 49.34649 6.10863 28016 ft 311 kts 358°
2026-05-03 20:44 49.38978 6.11073 28019 ft 314 kts 358°
2026-05-03 20:44 49.43383 6.11289 28018 ft 317 kts 358°
2026-05-03 20:45 49.47810 6.11507 28019 ft 319 kts 358°
2026-05-03 20:45 49.52256 6.11676 28021 ft 320 kts 357°
2026-05-03 20:46 49.56709 6.11843 28021 ft 320 kts 357°
2026-05-03 20:46 49.61163 6.12015 28019 ft 320 kts 357°
2026-05-03 20:47 49.65587 6.12185 28016 ft 316 kts 357°
2026-05-03 20:47 49.69978 6.12353 28011 ft 315 kts 357°
2026-05-03 20:48 49.74354 6.12520 28007 ft 315 kts 357°
2026-05-03 20:48 49.78728 6.12688 28007 ft 314 kts 357°
2026-05-03 20:49 49.83107 6.12853 28013 ft 314 kts 356°
2026-05-03 20:49 49.85228 6.12320 28001 ft 306 kts 336°
2026-05-03 20:49 49.87149 6.11008 28006 ft 299 kts 321°
2026-05-03 20:49 49.88780 6.09083 28007 ft 290 kts 308°
2026-05-03 20:50 49.90223 6.06907 28010 ft 290 kts 307°
2026-05-03 20:50 49.91683 6.04726 28007 ft 292 kts 308°
2026-05-03 20:50 49.93153 6.02553 28008 ft 292 kts 308°
2026-05-03 20:50 49.94624 6.00370 28009 ft 293 kts 307°
2026-05-03 20:51 49.96090 5.98184 28010 ft 292 kts 307°
2026-05-03 20:51 49.97563 5.95986 28008 ft 293 kts 307°
2026-05-03 20:51 49.99218 5.93514 28008 ft 294 kts 307°
2026-05-03 20:51 50.00510 5.91583 27999 ft 295 kts 307°
2026-05-03 20:52 50.01967 5.89406 28000 ft 293 kts 307°
2026-05-03 20:52 50.03433 5.87215 27997 ft 292 kts 307°
2026-05-03 20:52 50.04892 5.85028 28008 ft 291 kts 307°
2026-05-03 20:52 50.06350 5.82838 27989 ft 291 kts 307°
2026-05-03 20:53 50.07805 5.80656 27987 ft 290 kts 307°
2026-05-03 20:53 50.09259 5.78473 27987 ft 290 kts 307°
2026-05-03 20:53 50.10712 5.76289 27980 ft 290 kts 307°
2026-05-03 20:53 50.12164 5.74106 27983 ft 290 kts 307°
2026-05-03 20:54 50.13613 5.71926 27979 ft 289 kts 307°
2026-05-03 20:54 50.16511 5.67559 27980 ft 290 kts 306°
2026-05-03 20:54 50.17962 5.65368 27983 ft 290 kts 306°
2026-05-03 20:55 50.19411 5.63178 27972 ft 290 kts 306°
2026-05-03 20:55 50.20862 5.60986 27973 ft 290 kts 306°
2026-05-03 20:55 50.22313 5.58791 27971 ft 290 kts 306°
2026-05-03 20:55 50.23761 5.56597 27970 ft 290 kts 306°
2026-05-03 20:56 50.25207 5.54405 27970 ft 290 kts 306°
2026-05-03 20:56 50.26713 5.52121 28009 ft 290 kts 306°
2026-05-03 20:56 50.28105 5.50005 27980 ft 291 kts 305°
2026-05-03 20:56 50.29555 5.47802 27978 ft 291 kts 305°
2026-05-03 20:57 50.31008 5.45592 27971 ft 291 kts 305°
2026-05-03 20:57 50.32460 5.43382 27970 ft 291 kts 306°
2026-05-03 20:57 50.33909 5.41174 27970 ft 291 kts 305°
2026-05-03 20:57 50.35358 5.38962 27972 ft 291 kts 305°
2026-05-03 20:58 50.36810 5.36746 27971 ft 291 kts 305°
2026-05-03 20:58 50.38260 5.34530 27968 ft 291 kts 305°
2026-05-03 20:58 50.39712 5.32310 27968 ft 291 kts 305°
2026-05-03 20:58 50.41161 5.30091 27968 ft 291 kts 305°
2026-05-03 20:59 50.42119 5.28623 27968 ft 291 kts 305°
2026-05-03 20:59 50.44054 5.25655 27967 ft 291 kts 305°
2026-05-03 20:59 50.45502 5.23434 27967 ft 291 kts 305°
2026-05-03 20:59 50.46947 5.21214 27965 ft 291 kts 305°
2026-05-03 21:00 50.48392 5.18992 27965 ft 290 kts 305°
2026-05-03 21:00 50.48858 5.18275 27960 ft 290 kts 305°
2026-05-03 21:00 50.51261 5.14569 27961 ft 292 kts 305°
2026-05-03 21:00 50.52737 5.12294 27964 ft 294 kts 305°
2026-05-03 21:01 50.54179 5.10069 27973 ft 297 kts 305°
2026-05-03 21:01 50.55656 5.07783 27964 ft 299 kts 305°
2026-05-03 21:01 50.57146 5.05481 27962 ft 301 kts 305°
2026-05-03 21:01 50.58638 5.03179 27961 ft 300 kts 305°
2026-05-03 21:02 50.60127 5.00871 27959 ft 301 kts 305°
2026-05-03 21:02 50.61620 4.98552 27952 ft 302 kts 305°
2026-05-03 21:02 50.63108 4.96249 27948 ft 298 kts 305°
2026-05-03 21:02 50.64578 4.93968 27944 ft 295 kts 305°
2026-05-03 21:03 50.66036 4.91697 27940 ft 294 kts 304°
2026-05-03 21:03 50.67488 4.89435 27941 ft 293 kts 304°
2026-05-03 21:03 50.68945 4.87169 27933 ft 295 kts 305°
2026-05-03 21:03 50.70410 4.84886 27936 ft 297 kts 305°
2026-05-03 21:04 50.71886 4.82588 27939 ft 298 kts 305°
2026-05-03 21:04 50.73363 4.80285 27941 ft 299 kts 305°
2026-05-03 21:04 50.74842 4.77976 27943 ft 299 kts 305°
2026-05-03 21:04 50.76323 4.75662 27941 ft 300 kts 305°
2026-05-03 21:05 50.77803 4.73346 27942 ft 300 kts 305°
2026-05-03 21:05 50.79287 4.71020 27940 ft 301 kts 305°
2026-05-03 21:05 50.80774 4.68688 27947 ft 301 kts 305°
2026-05-03 21:05 50.82263 4.66354 27933 ft 300 kts 306°
2026-05-03 21:06 50.83732 4.64057 27930 ft 294 kts 306°
2026-05-03 21:06 50.85181 4.61774 27765 ft 295 kts 306°
2026-05-03 21:06 50.86549 4.59613 27513 ft 296 kts 306°
2026-05-03 21:06 50.87983 4.57360 27248 ft 293 kts 306°
2026-05-03 21:07 50.89336 4.55232 26997 ft 288 kts 305°
2026-05-03 21:07 50.90604 4.52820 26729 ft 278 kts 295°
2026-05-03 21:07 50.91613 4.50249 26473 ft 274 kts 291°
2026-05-03 21:07 50.92608 4.47662 26222 ft 275 kts 292°
2026-05-03 21:08 50.93610 4.45087 25973 ft 275 kts 292°
2026-05-03 21:08 50.94609 4.42508 25725 ft 275 kts 292°
2026-05-03 21:08 50.95603 4.39931 25478 ft 274 kts 292°
2026-05-03 21:08 50.96596 4.37354 25235 ft 272 kts 292°
2026-05-03 21:09 50.97582 4.34795 24993 ft 273 kts 292°
2026-05-03 21:09 50.98569 4.32229 24746 ft 271 kts 292°
2026-05-03 21:09 50.99545 4.29695 24505 ft 268 kts 292°
2026-05-03 21:09 51.00513 4.27173 24267 ft 267 kts 292°
2026-05-03 21:10 51.01475 4.24663 24030 ft 265 kts 292°
2026-05-03 21:10 51.02433 4.22165 23795 ft 264 kts 292°
2026-05-03 21:10 51.03382 4.19686 23564 ft 263 kts 292°
2026-05-03 21:10 51.04329 4.17212 23297 ft 261 kts 293°
2026-05-03 21:11 51.05266 4.14760 23018 ft 259 kts 292°
2026-05-03 21:11 51.06197 4.12322 22742 ft 257 kts 292°
2026-05-03 21:11 51.07123 4.09889 22474 ft 258 kts 292°
2026-05-03 21:11 51.08054 4.07446 22211 ft 258 kts 293°
2026-05-03 21:12 51.08999 4.05019 21937 ft 260 kts 297°
2026-05-03 21:12 51.10210 4.02831 21674 ft 267 kts 309°
2026-05-03 21:12 51.11674 4.01004 21517 ft 266 kts 317°
2026-05-03 21:12 51.13170 3.99251 21219 ft 269 kts 316°
2026-05-03 21:13 51.14667 3.97472 20862 ft 267 kts 316°
2026-05-03 21:13 51.16149 3.95721 20512 ft 263 kts 316°
2026-05-03 21:13 51.17620 3.93978 20166 ft 262 kts 316°
2026-05-03 21:13 51.19078 3.92254 19821 ft 260 kts 316°
2026-05-03 21:14 51.20522 3.90543 19475 ft 258 kts 316°
2026-05-03 21:14 51.21957 3.88848 19127 ft 257 kts 318°
2026-05-03 21:14 51.22995 3.87904 18897 ft 261 kts 330°
2026-05-03 21:14 51.24748 3.87056 18552 ft 266 kts 346°
2026-05-03 21:15 51.26607 3.86890 18204 ft 268 kts 356°
2026-05-03 21:15 51.28465 3.86862 17825 ft 266 kts 355°
2026-05-03 21:15 51.30317 3.86815 17466 ft 267 kts 355°
2026-05-03 21:15 51.32149 3.86771 17113 ft 261 kts 355°
2026-05-03 21:16 51.33950 3.86729 16769 ft 258 kts 355°
2026-05-03 21:16 51.35737 3.86686 16430 ft 255 kts 354°
2026-05-03 21:16 51.37509 3.86645 16092 ft 253 kts 354°
2026-05-03 21:16 51.39263 3.86603 15751 ft 251 kts 354°
2026-05-03 21:17 51.41001 3.86776 15412 ft 252 kts
2026-05-03 21:17 51.42651 3.87741 15079 ft 253 kts 26°
2026-05-03 21:17 51.44090 3.89297 14756 ft 252 kts 35°
2026-05-03 21:17 51.45496 3.90943 14427 ft 250 kts 34°
2026-05-03 21:18 51.46909 3.92575 14096 ft 249 kts 34°
2026-05-03 21:18 51.48311 3.94195 13768 ft 247 kts 34°
2026-05-03 21:18 51.49697 3.95803 13416 ft 245 kts 34°
2026-05-03 21:18 51.51066 3.97392 13093 ft 242 kts 34°
2026-05-03 21:19 51.52419 3.98964 12768 ft 239 kts 34°
2026-05-03 21:19 51.53765 4.00528 12451 ft 238 kts 34°
2026-05-03 21:19 51.55103 4.02084 12138 ft 237 kts 34°
2026-05-03 21:19 51.56438 4.03638 11827 ft 237 kts 34°
2026-05-03 21:20 51.57768 4.05189 11516 ft 236 kts 34°
2026-05-03 21:20 51.59095 4.06735 11205 ft 235 kts 34°
2026-05-03 21:20 51.60414 4.08274 10895 ft 234 kts 35°
2026-05-03 21:20 51.61728 4.09809 10587 ft 232 kts 35°
2026-05-03 21:21 51.63033 4.11333 10280 ft 231 kts 35°
2026-05-03 21:21 51.64332 4.12852 9976 ft 230 kts 35°
2026-05-03 21:21 51.65624 4.14365 9661 ft 229 kts 35°
2026-05-03 21:21 51.66902 4.15861 9342 ft 226 kts 35°
2026-05-03 21:22 51.68170 4.17347 9041 ft 224 kts 35°
2026-05-03 21:22 51.69429 4.18822 8746 ft 223 kts 35°
2026-05-03 21:22 51.70675 4.20284 8452 ft 221 kts 35°
2026-05-03 21:22 51.71916 4.21742 8164 ft 220 kts 35°
2026-05-03 21:23 51.73148 4.23189 7882 ft 221 kts 35°
2026-05-03 21:23 51.74336 4.24751 7630 ft 220 kts 46°
2026-05-03 21:23 51.75299 4.26666 7351 ft 220 kts 51°
2026-05-03 21:23 51.76266 4.28581 7069 ft 220 kts 50°
2026-05-03 21:24 51.77234 4.30485 6778 ft 220 kts 50°
2026-05-03 21:24 51.78197 4.32394 6488 ft 218 kts 51°
2026-05-03 21:24 51.79149 4.34286 6195 ft 217 kts 50°
2026-05-03 21:24 51.80101 4.36176 5897 ft 216 kts 50°
2026-05-03 21:25 51.81045 4.38050 5612 ft 215 kts 50°
2026-05-03 21:25 51.81986 4.39924 5330 ft 214 kts 50°
2026-05-03 21:25 51.82924 4.41790 5043 ft 213 kts 50°
2026-05-03 21:25 51.83859 4.43653 4760 ft 213 kts 50°
2026-05-03 21:26 51.84791 4.45509 4474 ft 212 kts 50°
2026-05-03 21:26 51.85718 4.47359 4190 ft 211 kts 50°
2026-05-03 21:26 51.86642 4.49204 3913 ft 210 kts 50°
2026-05-03 21:26 51.87557 4.51031 3634 ft 208 kts 50°
2026-05-03 21:27 51.88465 4.52845 3361 ft 207 kts 50°
2026-05-03 21:27 51.89366 4.54648 3083 ft 205 kts 50°
2026-05-03 21:27 51.90248 4.56415 2977 ft 200 kts 50°
2026-05-03 21:27 51.91134 4.58188 2977 ft 204 kts 50°
2026-05-03 21:28 51.92016 4.59954 2978 ft 205 kts 50°
2026-05-03 21:28 51.92920 4.61768 2859 ft 207 kts 50°
2026-05-03 21:28 51.93829 4.63597 2603 ft 204 kts 50°
2026-05-03 21:28 51.94716 4.65379 2348 ft 202 kts 51°
2026-05-03 21:29 51.95585 4.67127 2101 ft 202 kts 50°
2026-05-03 21:29 51.96462 4.68892 1960 ft 197 kts 51°
2026-05-03 21:29 51.97329 4.70633 1965 ft 202 kts 51°
2026-05-03 21:29 51.98220 4.72428 1968 ft 206 kts 50°
2026-05-03 21:30 51.99110 4.74225 1969 ft 203 kts 50°
2026-05-03 21:30 52.00127 4.75770 1962 ft 200 kts 29°
2026-05-03 21:30 52.01403 4.76580 1960 ft 197 kts
2026-05-03 21:30 52.02749 4.76606 1956 ft 190 kts 344°
2026-05-03 21:31 52.03896 4.75676 1957 ft 183 kts 314°
2026-05-03 21:31 52.04597 4.74024 1959 ft 176 kts 286°
2026-05-03 21:31 52.04742 4.72097 1959 ft 171 kts 264°
2026-05-03 21:31 52.04644 4.70170 1966 ft 171 kts 263°
2026-05-03 21:32 52.04554 4.68238 1966 ft 172 kts 263°
2026-05-03 21:32 52.04311 4.66356 1966 ft 170 kts 252°
2026-05-03 21:32 52.03844 4.64607 1963 ft 168 kts 239°
2026-05-03 21:32 52.03233 4.62992 1964 ft 168 kts 238°
2026-05-03 21:33 52.02604 4.61393 1966 ft 166 kts 236°
2026-05-03 21:33 52.02010 4.59898 1957 ft 149 kts 237°
2026-05-03 21:33 52.01495 4.58610 1916 ft 124 kts 237°
2026-05-03 21:33 52.01038 4.57471 1767 ft 118 kts 237°
2026-05-03 21:34 52.00596 4.56347 1611 ft 119 kts 237°
2026-05-03 21:34 52.00142 4.55214 1449 ft 120 kts 236°
2026-05-03 21:34 51.99690 4.54072 1287 ft 119 kts 237°
2026-05-03 21:34 51.99257 4.52985 1131 ft 109 kts 237°
2026-05-03 21:35 51.98843 4.51956 1003 ft 113 kts 236°
2026-05-03 21:35 51.98391 4.50898 824 ft 110 kts 234°
2026-05-03 21:35 51.98009 4.49910 688 ft 103 kts 238°
2026-05-03 21:35 51.97618 4.48927 576 ft 104 kts 234°
2026-05-03 21:36 51.97210 4.47952 417 ft 103 kts 237°
2026-05-03 21:36 51.96845 4.46987 275 ft 99 kts 237°
2026-05-03 21:36 51.96486 4.46046 146 ft 98 kts 237°
2026-05-03 21:36 51.96120 4.45114 27 ft 98 kts 235°
2026-05-03 21:37 51.95789 4.44280 -4 ft 67 kts 236°
2026-05-03 21:37 51.95621 4.43869 -4 ft 39 kts 239°
2026-05-03 21:37 51.95495 4.43623 -5 ft 24 kts 213°
2026-05-03 21:37 51.95376 4.43487 -3 ft 16 kts 215°
2026-05-03 21:38 51.95318 4.43425 -3 ft 3 kts 203°
2026-05-03 21:38 51.95278 4.43404 -3 ft 8 kts 174°
2026-05-03 21:38 51.95201 4.43479 -3 ft 18 kts 149°
2026-05-03 21:38 51.95070 4.43617 -3 ft 22 kts 144°
2026-05-03 21:39 51.94964 4.43729 -3 ft 10 kts 142°
2026-05-03 21:39 51.94953 4.43821 -3 ft 10 kts 146°
2026-05-03 21:39 51.94883 4.43858 -3 ft 10 kts 213°
2026-05-03 21:39 51.94839 4.43748 -3 ft 12 kts 242°
2026-05-03 21:40 51.94824 4.43710 -3 ft 0 kts 238°